Weather History for HELX - April, 2014

Change the Weather History Date:

Sunday, April 27, 2014

  Actual Average Record
Temperature  
Mean Temperature 84 °F -  
Max Temperature 99 °F 98 °F 104 °F (2004)
Min Temperature 69 °F 69 °F 59 °F (2003)
Cooling Degree Days 19    
Growing Degree Days 34 (Base 50)    
Moisture  
Dew Point 48 °F    
Average Humidity 26    
Maximum Humidity 43    
Minimum Humidity 11    
Precipitation  
Precipitation 0.00 in 0.00 in - ()
Sea Level Pressure  
Sea Level Pressure 29.78 in    
Wind  
Wind Speed 4 mph ()    
Max Wind Speed 9 mph    
Max Gust Speed -    
Visibility 6.0 miles    
Events      
Averages and records for this station are not official NWS values.
T = Trace of Precipitation, MM = Missing Value Source: Averaged Metar Reports

Daily Weather History Graph

Daily Weather History Graph

Search for Another Location

Airport or City:

Trip Planner

Search our weather history database for the weather conditions in past years. The results will help you decide how hot, cold, wet, or windy it might be!

Date:

Astronomy

Apr. 27, 2014 Rise Set
Actual Time 5:15 AM EET 6:18 PM EET
Civil Twilight 4:51 AM EET 6:42 PM EET
Nautical Twilight 4:23 AM EET 7:10 PM EET
Astronomical Twilight 3:54 AM EET 7:39 PM EET
Moon 3:50 AM EET (4/27) 4:40 PM EET (4/27)
Length of Visible Light 13h 50m
Length of Day
13h 02m
Waning Crescent, 4% of the Moon is Illuminated
Apr 27
Waning Crescent
Apr 29
New
May 7
First Quarter
May 14
Full
May 21
Last Quarter

Hourly Weather History & Observations

Time (EET) Temp. Heat Index Dew Point Humidity Pressure Visibility Wind Dir Wind Speed Gust Speed Precip Events Conditions
12:00 AM 78.8 °F - 48.2 °F 34% 29.77 in - SW 5.8 mph - N/A   Clear
1:00 AM 77.0 °F - 48.2 °F 36% 29.77 in - SW 4.6 mph - N/A   Clear
2:00 AM 75 °F - 48 °F 27% 29.75 in 6 mi SW 4.6 mph - -  
2:00 AM 75.2 °F - 48.2 °F 38% 29.74 in - SW 4.6 mph - N/A   Clear
3:00 AM 73.4 °F - 46.4 °F 38% 29.74 in - SSW 2.3 mph - N/A   Clear
4:00 AM 73.4 °F - 46.4 °F 38% 29.74 in - East 2.3 mph - N/A   Clear
5:00 AM 71 °F - 48 °F 33% 29.76 in 6 mi South 2.3 mph - -  
5:00 AM 71.6 °F - 48.2 °F 43% 29.77 in - South 2.3 mph - N/A   Clear
6:00 AM 71.6 °F - 48.2 °F 43% 29.77 in - SSE 2.3 mph - N/A   Clear
7:00 AM 75.2 °F - 50.0 °F 41% 29.80 in - South 2.3 mph - N/A   Clear
8:00 AM 80 °F - 50 °F 25% 29.82 in 6 mi Calm Calm - -  
8:00 AM 80.6 °F - 50.0 °F 34% 29.83 in - Calm Calm - N/A   Clear
9:00 AM 84.2 °F - 51.8 °F 33% 29.83 in - West 3.5 mph - N/A   Clear
10:00 AM 89.6 °F 87.3 °F 53.6 °F 29% 29.83 in - West 3.5 mph - N/A   Clear
11:00 AM 91 °F - 54 °F 19% 29.81 in 6 mi West 6.9 mph - -  
11:00 AM 91.4 °F 89.1 °F 53.6 °F 28% 29.83 in - West 6.9 mph - N/A   Clear
12:00 PM 95.0 °F 93.0 °F 55.4 °F 26% 29.80 in - WSW 9.2 mph - N/A   Clear
1:00 PM 96.8 °F - 50.0 °F 20% 29.77 in - WSW 5.8 mph - N/A   Clear
2:00 PM 99 °F - 50 °F 12% 29.74 in 6 mi WSW 8.1 mph - -  
2:00 PM 98.6 °F - 50.0 °F 19% 29.74 in - WSW 8.1 mph - N/A   Clear
3:00 PM 98.6 °F - 51.8 °F 21% 29.74 in - WSW 6.9 mph - N/A   Clear
4:00 PM 98.6 °F - 51.8 °F 21% 29.74 in - West 8.1 mph - N/A   Clear
5:00 PM 97 °F - 49 °F 12% 29.72 in 6 mi WNW 8.1 mph - -  
5:00 PM 96.8 °F - 50.0 °F 20% 29.74 in - WNW 8.1 mph - N/A   Clear
6:00 PM 93.2 °F - 42.8 °F 17% 29.74 in - WNW 6.9 mph - N/A   Clear
7:00 PM 87.8 °F - 41.0 °F 19% 29.77 in - Calm Calm - N/A   Clear
8:00 PM 86 °F - 40 °F 11% 29.80 in 6 mi West 3.5 mph - -  
8:00 PM 86.0 °F - 39.2 °F 19% 29.80 in - West 3.5 mph - N/A   Clear
9:00 PM 84.2 °F - 41.0 °F 22% 29.83 in - WNW 2.3 mph - N/A   Clear
10:00 PM 86.0 °F - 42.8 °F 22% 29.86 in - Calm Calm - N/A   Clear
11:00 PM 80 °F - 42 °F 16% 29.85 in 6 mi West 3.5 mph - -  
11:00 PM 80.6 °F - 48.2 °F 32% 29.86 in - West 3.5 mph - N/A   Clear